Location: La Oliva
(42.2466°N, 2.9955°E)
Time: 06:53:28
(UTC+00:00)

Resurs 01 Rocket - Pass Details

Date: 22 April 2021
Orbit: 634 x 644 km, 97.9° (Epoch: 07 May)

Event Time Altitude Azimuth Distance (km) Brightness Sun altitude
Exits shadow 20:46:10 31° 197° (SSW) 1,133 2.6 -21.4°
Maximum altitude 20:48:03 54° 260° (W) 781 2.2 -21.7°
Drops below altitude 10° 20:52:27 10° 338° (NNW) 2,049 5.1 -22.3°
Sets 20:54:43 0° 343° (NNW) 2,963 6.0 -22.6°
